Yuxing-2 09

operational
NORAD ID: 66998 Int'l Des: 2025-292 Owner: HARB Country: CN
LEOCIRCULARRETROGRADESSO

Yuxing-2 09について

説明を読み込み中...

リアルタイム位置

3D地球を読み込み中...

次回通過

高度履歴

Altitude vs Time

uPlot chart will show altitude changes over time

軌道要素

1 66998U 25292F 25345.87541468 .00001610 00000-0 11825-3 0 9998
2 66998 97.6565 58.4348 0014607 280.9703 78.9880 15.04802497 265
Epoch: Dec 11, 2025 • Age: 60 hours

現在のステータス

高度 570.0 km
速度 7.58 km/s
衛星直下点 -79.02°S, 118.17°W
打ち上げ日 Dec 10, 2025
運用期間 4 days
タイプ other

技術仕様

分類 Payload
質量 50.00 kg
乾燥質量 50.00 kg
総質量 50.00 kg
長さ 1.50 m
直径 1.00 m
スパン 1.50 m
形状 Box
製造者 HARB
バスタイプ YX2
フェーズステータス In Orbit
所有者/国 HARB/CN

大規模コンステレーション

Loading constellations...